#timestamp,LO_Frequency,Hit,StdDev 
1572346815.4,286046998.5,N
1572346835.2,286047000.3,N
1572346855.0,286046999.9,N
1572346855.9,286046999.9,N
1572346875.8,286046999.8,N
1572346895.6,286047002.7,N
1572346915.5,286047004.3,Y
1572346935.3,286047002.0,P
1572346955.1,286047002.8,N
1572346975.9,286047002.0,N
1572346995.7,286047000.0,N
1572347015.5,286046999.9,N
1572347035.4,286047001.6,N
1572347055.2,286047001.5,N
1572347075.1,286047002.5,N
1572347076.0,286047002.5,N
1572347095.8,286047000.1,N
1572347115.6,286047002.8,N
1572347135.5,286047000.8,N
1572347155.3,286047000.4,N
1572347175.1,286047000.2,N
1572347195.9,286047001.0,N
1572347215.7,286047000.1,N
1572347235.6,286046999.8,N
1572347255.4,286047000.3,N
1572347275.2,286047000.5,N
1572347295.1,286047000.9,N
1572347296.0,286047000.9,N
1572347315.8,286047002.4,N
1572347335.7,286046999.7,N
1572347355.5,286047002.2,N
1572347375.3,286046999.8,N
1572347395.2,286047000.6,N
1572347415.9,286047001.0,N
1572347435.7,286046998.4,N
1572347455.6,286046999.1,N
1572347475.4,286046999.0,N
1572347495.2,286047001.1,N
1572347515.1,286047001.2,N
1572347516.0,286047001.2,N
1572347535.8,286047001.0,N
1572347555.7,286047001.0,N
1572347575.5,286046996.6,Y
1572347595.3,286046997.0,P
1572347615.2,286046996.7,N
1572347635.0,286046995.3,N
1572347635.9,286046995.3,N
1572347655.8,286046995.4,N
1572347675.6,286046995.3,N
1572347695.4,286046997.3,N
1572347715.3,286046996.6,N
1572347735.1,286046996.6,N
1572347755.8,286046997.1,N
1572347775.7,286046996.6,N
1572347795.5,286046998.8,N
1572347815.4,286046998.3,N
1572347835.2,286046996.6,N
1572347855.0,286046999.5,N
1572347855.9,286046999.5,N
1572347875.8,286046997.8,N
1572347895.6,286046997.4,N
1572347915.4,286046999.2,N
1572347935.3,286046996.9,N
1572347955.1,286046999.6,N
1572347975.9,286046998.6,N
1572347995.7,286046999.4,N
1572348015.5,286046999.1,N
1572348035.4,286046998.7,N
1572348055.2,286046998.9,N
1572348075.0,286046999.3,N
1572348075.9,286046999.3,N
1572348095.8,286046998.6,N
1572348115.6,286046996.8,N
1572348135.5,286046998.9,N
1572348155.3,286046999.3,N
1572348175.1,286046999.2,N
1572348195.9,286046998.2,N
1572348215.7,286046999.4,N
1572348235.5,286046998.4,N
1572348255.4,286046999.5,N
1572348275.2,286046997.0,N
1572348295.1,286046999.1,N
1572348296.0,286046999.1,N
1572348315.8,286046999.5,N
1572348335.6,286046999.5,N
1572348355.5,286046997.0,Y
1572348375.3,286046999.0,P
1572348395.1,286046999.6,N
1572348415.9,286046997.8,P
1572348435.7,286046995.4,Y
1572348455.6,286046996.9,P
1572348475.4,286046998.4,N
1572348495.2,286047001.1,N
1572348515.1,286046998.2,N
1572348516.0,286046998.2,N
1572348535.8,286046998.3,N
1572348555.6,286046998.4,N
1572348575.5,286046999.3,N
1572348595.3,286047000.8,N
1572348615.2,286046998.2,N
1572348635.9,286047002.5,N
1572348655.7,286047002.0,N
1572348675.6,286047002.4,N
1572348695.4,286047002.7,N
1572348715.2,286047002.1,N
1572348735.1,286047002.0,N
1572348736.0,286047002.0,N
1572348755.8,286047002.8,N
1572348775.7,286047002.3,N
1572348825.5,286046999.7,E
1572348835.4,286047002.5,N
1572348855.3,286047002.5,P
1572348875.1,286047002.3,P
1572348895.8,286047001.0,Y
1572348915.7,286046999.0,P
1572348935.5,286046997.3,N
1572348955.4,286046997.6,N
1572348975.2,286046997.8,N
1572348995.0,286046995.3,N
1572348995.9,286046995.3,N
1572349015.8,286046997.3,N
1572349035.6,286046997.3,N
1572349055.4,286046997.7,N
1572349075.3,286046996.7,N
1572349095.1,286046997.6,N
1572349115.9,286046996.9,N
1572349135.7,286046998.4,N
1572349155.5,286046996.7,N
1572349175.4,286046996.8,N
1572349195.2,286046996.5,N
1572349215.0,286046997.8,N
1572349215.9,286046997.8,N
1572349235.8,286046999.6,N
1572349255.6,286046996.9,N
1572349275.5,286046997.0,N
1572349295.3,286046997.6,N
1572349315.1,286046997.0,N
1572349335.9,286046997.1,N
1572349355.7,286046996.6,N
1572349375.5,286046997.2,N
1572349395.4,286046998.9,N
1572349415.2,286047000.6,N
1572349435.1,286046998.5,N
1572349436.0,286046998.5,N
1572349455.8,286047000.6,N
1572349475.6,286047000.1,N
1572349495.5,286046999.9,N
1572349515.3,286047000.3,N
1572349535.1,286047000.9,N
1572349555.9,286047001.0,N
1572349575.7,286047000.9,N
1572349595.6,286047001.0,N
1572349615.4,286046998.4,N
1572349635.2,286046999.5,N
1572349655.1,286046998.9,N
1572349656.0,286046998.9,N
1572349675.8,286047000.7,N
1572349695.6,286046998.2,N
1572349715.5,286046996.5,N
1572349735.3,286046996.6,N
1572349755.2,286046999.1,N
1572349775.9,286046998.7,N
1572349795.7,286046998.5,N
1572349815.6,286046998.7,N
1572349835.4,286047000.3,N
1572349855.2,286047001.0,N
1572349875.1,286047000.3,N
1572349876.0,286047000.3,N
1572349895.8,286047002.5,N
1572349915.7,286046999.8,N
1572349935.5,286046999.7,N
1572349955.3,286047000.3,N
1572349975.2,286047002.8,N
1572350025.0,286046998.8,E
1572350035.9,286046996.6,N
1572350055.7,286046998.2,P
1572350075.5,286046998.9,N
1572350095.4,286046997.2,N
1572350115.2,286046997.4,N
1572350135.1,286046995.0,Y
1572350136.0,286046995.0,P
1572350155.8,286046996.7,N
1572350175.6,286046997.1,N
1572350195.5,286046997.4,N
1572350215.3,286046996.7,Y
1572350235.1,286047002.3,P
1572350255.9,286046999.8,N
1572350275.7,286047002.6,N
1572350295.6,286046999.9,N
1572350315.4,286047002.0,N
1572350335.2,286047002.3,N
1572350355.1,286047000.2,N
1572350356.0,286047000.2,N
1572350375.8,286047001.0,N
1572350395.7,286046998.8,N
